Other Public Products
Issued by NWS Charleston, SC

Home | Current Version | Previous Version | Text Only | Print | Product List | Glossary On
Versions: 1 2 3 4 5 6 7 8 9 10 11 12 13 14 15 16 17 18 19 20 21 22 23 24 25 26 27 28 29 30 31 32 33 34 35 36 37 38 39 40 41 42 43 44 45 46 47 48 49 50
221
FPUS82 KCHS 212312
OPUCHS

TEST...KCHS/KSAV Gateway Observations...TEST
National Weather Service Charleston SC
600 PM EST SAT JAN 21 2017

NOTE: "fair" indicates few or no clouds below 12,000 feet with no
significant weather and/or obstructions to visibility.

SCZ050-WAZ558-NCZ071-TXZ119-213-PAZ071-DCZ001-FLZ074-172-MI076-
NYZ176-178-MAZ016-IL014-TNZ027-NJZ106-GAZ044-MD014-220000-
...Gateway Observations for Charleston International...

CITY           SKY/WX    TMP DP  RH WIND       PRES   REMARKS
Chas Airport   LGT RAIN  63  59  87 SW13G22   29.75R
Seattle        PTSUNNY   49  42  77 NW6       29.42R
Charlotte      CLOUDY    56  54  93 NE9       29.68F
Dallas DFW     CLOUDY    67  56  67 S7        29.40R THUNDER
Dallas Love    MOCLDY    69  54  58 S7        29.41R
Philladelphia  FOG       46  45  96 S5        29.84S VSB 3/4
Wash National  CLOUDY    50  48  93 S5        29.83R
Baltimore      DRIZZLE   46  46 100 SE6       29.82S FOG
Miami          PTCLDY    79  61  53 S10G21    29.88R
Detroit        PTCLDY    53  50  89 SE6       29.61S
Newark         CLOUDY    46  44  93 SW7       29.81F
Laguardia      PTCLDY    48  43  82 SW8       29.81S
J F K          CLOUDY    46  46 100 SW9       29.82F FOG
Boston Logan   CLOUDY    53  43  68 W12       29.75R
Ft. Lauderdale PTCLDY    76  63  64 S10       29.86R
Chicago O`Hare PTCLDY    54  43  66 SW10      29.50R
Chicago Midway PTCLDY    56  42  59 SW9       29.51R
Houston Bush   PTCLDY    76  54  46 W7        29.44R
Houston Hobby  PTCLDY    78  54  43 SW13      29.44R
Nashville      MOCLDY    64  48  56 S6        29.62R
Atlanta        MOCLDY    61  57  87 SW3       29.65F

$$

GAZ044-118-TXZ119-213-NCZ071-DCZ001-MDZ014-506-PAZ021-071-NJZ106-
NYZ176-178-MAZ106-OHZ011-021-055-MIZ076-KYZ091-ILZ014-INZ047-
MNZ060-220000-
...Gateway Observations for Savannah International...

CITY           SKY/WX    TMP DP  RH WIND       PRES   REMARKS
Savannah Arpt  LGT RAIN  61  58  90 SW7       29.77F
Atlanta        MOCLDY    61  57  87 SW3       29.65F
Charlotte      CLOUDY    56  54  93 NE9       29.68F
Dallas DFW     CLOUDY    67  56  67 S7        29.40R THUNDER
Houston Bush   PTCLDY    76  54  46 W7        29.44R
Wash National  CLOUDY    50  48  93 S5        29.83R
Wash Dulles    CLOUDY    49  47  93 S5        29.81F FOG
Baltimore      DRIZZLE   46  46 100 SE6       29.82S FOG
Philadelphia   FOG       46  45  96 S5        29.84S VSB 3/4
Newark         CLOUDY    46  44  93 SW7       29.81F
Laguardia      PTCLDY    48  43  82 SW8       29.81S
J F K          CLOUDY    46  46 100 SW9       29.82F FOG
Boston         CLOUDY    53  43  68 W12       29.75R
Pittsburg      CLOUDY    61  49  64 SW6       29.69S
Akron          CLOUDY    55  49  80 S7        29.69R
Cleveland      CLOUDY    59  50  72 S8        29.68R
Cincinnati     CLOUDY    60  54  80 S8        29.62F
Columbus       LGT RAIN  56  52  87 SE6       29.66S
Detroit        PTCLDY    53  50  89 SE6       29.61S
Chicago O`Hare PTCLDY    54  43  66 SW10      29.50R
Minneapolis    DRIZZLE   38  35  89 CALM      29.45S FOG
Indianapolis   PTCLDY    59  49  69 SW10      29.57R

$$




USA.gov is the U.S. government's official web portal to all federal, state and local government web resources and services.